Regional Weather Roundup
Issued by NWS

Home | Current Version | Previous Version | Graphics & Text | Print | Product List | Glossary On
Versions: 1 2 3 4 5 6 7 8 9 10 11 12 13 14 15 16 17 18 19 20 21 22 23 24 25 26 27 28 29 30 31 32 33 34 35 36 37 38 39 40 41 42 43 44 45 46 47 48 49 50
000
ASUS43 KLSX 260107
RWRMO

WEATHER SUMMARY FOR MISSOURI
NATIONAL WEATHER SERVICE SPRINGFIELD MO
800 PM CDT MON MAY 25 2015

NOTE: "FAIR" INDICATES FEW OR NO CLOUDS BELOW 12,000 FEET WITH NO
       SIGNIFICANT WEATHER AND/OR OBSTRUCTIONS TO VISIBILITY.
       CURRENT SKY AND/OR WEATHER CONDITIONS ARE NOT AVAILABLE FOR
       CHILLICOTHE AND FARMINGTON.

MOZ001>031-035>038-043-044-053-054-260200-
...NORTHERN AND WESTERN MISSOURI...

CITY           SKY/WX    TMP DP  RH WIND       PRES   REMARKS
KANSAS CTY INT CLOUDY    74  65  73 S7        29.83R
KANSAS C DTWN  CLOUDY    78  64  61 S9        29.81R
LEE`S SUMMIT   CLOUDY    77  65  66 S9        29.83S
ST JOSEPH      CLOUDY    67  56  67 NW21G26   29.87R THUNDER
CHILLICOTHE      N/A     78  65  63 S3        29.85R
KIRKSVILLE     PTCLDY    73  68  84 S6        29.87F

$$
MOZ066>068-077>081-088>096-101>105-260200-
...SOUTHWEST MISSOURI...

CITY           SKY/WX    TMP DP  RH WIND       PRES   REMARKS
SPRINGFIELD    CLOUDY    75  63  66 S15       29.88R
JOPLIN         CLOUDY    75  66  73 SE9       29.84F

$$
MOZ032>034-039>042-045>050-055>058-069>072-260200-
...CENTRAL MISSOURI...

CITY           SKY/WX    TMP DP  RH WIND       PRES   REMARKS
COLUMBIA       MOCLDY    76  65  68 S9        29.90R
JEFFERSON CITY MOCLDY    79  63  57 S10       29.88R
ROLLA          PTCLDY    74  65  73 S10       29.91R
SEDALIA        CLOUDY    77  66  68 S8        29.88R
WARRENSBURG    CLOUDY    73  64  73 SE6       29.84F
OSAGE BEACH    MOCLDY    75  63  64 SE7       29.90R

$$
MOZ051-052-059>065-260200-
...EAST CENTRAL MISSOURI...

CITY           SKY/WX    TMP DP  RH WIND       PRES   REMARKS
ST LOUIS INTL  MOCLDY    80  66  62 S18G26    29.93R
SPIRIT OF STL  MOCLDY    78  66  66 SE6       29.91R
ST CHARLES     CLEAR     78  66  66 S12       29.91R

$$
MOZ072>076-082>087-097>100-106>115-260200-
...SOUTH CENTRAL AND SOUTHEAST MISSOURI...

CITY           SKY/WX    TMP DP  RH WIND       PRES   REMARKS
CAPE GIRARDEAU PTCLDY    74  69  85 SE10      30.00R
FARMINGTON     CLEAR     73  64  73 S13       30.02R
POPLAR BLUFF   CLEAR     76  68  76 S8        29.98R
WEST PLAINS    MOCLDY    74  66  76 SE8       29.98R

$$


USA.gov is the U.S. government's official web portal to all federal, state and local government web resources and services.